• In Deutschland
  • Länderverzeichnis
  • Für 7 Tage
  • Wassertemperatur
  • Satellitenkarten
  • Wetterkarte
  • Widgets
  • user-avatar
    Anmelden

    Stündliche Wetter Newark

    Heute, 25 November, Samstag

    Zeit Temperatur Niederschläge Wind Luftdruck Luftfeuchtigkeit
    00:00 +5°C° 0 mm 5 m/S 731 mmHg 66%
    01:00 +5°C° 0 mm 5 m/S 730 mmHg 68%
    02:00 +5°C° 0 mm 5 m/S 730 mmHg 70%
    03:00 +5°C° 0 mm 5 m/S 730 mmHg 71%
    04:00 +5°C° 0 mm 5 m/S 730 mmHg 73%
    05:00 +5°C° 0 mm 5 m/S 730 mmHg 74%
    06:00 +5°C° 0 mm 4 m/S 730 mmHg 74%
    07:00 +5°C° 0 mm 4 m/S 730 mmHg 75%
    08:00 +6°C° 0 mm 4 m/S 731 mmHg 75%
    09:00 +6°C° 0 mm 4 m/S 731 mmHg 76%
    10:00 +7°C° 0 mm 4 m/S 732 mmHg 76%
    11:00 +7°C° 0 mm 5 m/S 732 mmHg 75%
    12:00 +8°C° 0 mm 5 m/S 732 mmHg 74%
    13:00 +8°C° 0 mm 5 m/S 733 mmHg 74%
    14:00 +8°C° 0 mm 5 m/S 733 mmHg 72%
    15:00 +7°C° 0 mm 5 m/S 734 mmHg 71%
    16:00 +7°C° 0 mm 4 m/S 734 mmHg 69%
    17:00 +6°C° 0 mm 5 m/S 735 mmHg 68%
    18:00 +5°C° 0 mm 5 m/S 735 mmHg 67%
    19:00 +5°C° 0 mm 5 m/S 736 mmHg 66%
    20:00 +3°C° 0 mm 5 m/S 737 mmHg 66%
    21:00 +2°C° 0 mm 5 m/S 737 mmHg 65%
    22:00 +3°C° 0 mm 4 m/S 738 mmHg 65%
    23:00 +1°C° 0 mm 4 m/S 738 mmHg 68%

    Morgen, 26 November, Sonntag

    Zeit Temperatur Niederschläge Wind Luftdruck Luftfeuchtigkeit
    00:00 0°C° 0 mm 4 m/S 739 mmHg 71%
    01:00 -1°C° 0 mm 4 m/S 739 mmHg 74%
    02:00 0°C° 0 mm 3 m/S 740 mmHg 76%
    03:00 -1°C° 0 mm 3 m/S 740 mmHg 77%
    04:00 -2°C° 0 mm 3 m/S 741 mmHg 79%
    05:00 -2°C° 0 mm 2 m/S 741 mmHg 80%
    06:00 -2°C° 0 mm 2 m/S 741 mmHg 81%
    07:00 -3°C° 0 mm 2 m/S 742 mmHg 82%
    08:00 -2°C° 0 mm 2 m/S 742 mmHg 75%
    09:00 +1°C° 0 mm 2 m/S 743 mmHg 68%
    10:00 +2°C° 0 mm 2 m/S 743 mmHg 61%
    11:00 +2°C° 0 mm 3 m/S 743 mmHg 57%
    12:00 +3°C° 0 mm 3 m/S 742 mmHg 53%
    13:00 +4°C° 0 mm 3 m/S 742 mmHg 50%
    14:00 +4°C° 0 mm 3 m/S 742 mmHg 52%
    15:00 +4°C° 0 mm 3 m/S 741 mmHg 54%
    16:00 +4°C° 0 mm 3 m/S 741 mmHg 56%
    17:00 +3°C° 0 mm 3 m/S 741 mmHg 61%
    18:00 +2°C° 0 mm 3 m/S 741 mmHg 66%
    19:00 +1°C° 0 mm 3 m/S 741 mmHg 72%
    20:00 +1°C° 0 mm 3 m/S 741 mmHg 72%
    21:00 +1°C° 0 mm 3 m/S 741 mmHg 72%
    22:00 +1°C° 0 mm 3 m/S 740 mmHg 72%
    23:00 0°C° 0 mm 3 m/S 740 mmHg 73%

    übermorgen, 27 November, Montag

    Zeit Temperatur Niederschläge Wind Luftdruck Luftfeuchtigkeit
    00:00 0°C° 0 mm 3 m/S 740 mmHg 74%
    01:00 0°C° 0 mm 3 m/S 740 mmHg 75%
    02:00 0°C° 0 mm 3 m/S 740 mmHg 77%
    03:00 0°C° 0 mm 3 m/S 740 mmHg 79%
    04:00 0°C° 0 mm 3 m/S 740 mmHg 81%
    05:00 0°C° 0 mm 3 m/S 740 mmHg 84%
    06:00 +1°C° 0 mm 2 m/S 741 mmHg 86%
    07:00 -1°C° 0 mm 2 m/S 741 mmHg 89%
    08:00 +2°C° 0 mm 2 m/S 741 mmHg 83%
    09:00 +2°C° 0 mm 3 m/S 741 mmHg 78%
    10:00 +4°C° 0 mm 3 m/S 742 mmHg 73%
    11:00 +5°C° 0 mm 3 m/S 741 mmHg 69%
    12:00 +8°C° 0 mm 3 m/S 741 mmHg 65%
    13:00 +10°C° 0 mm 3 m/S 740 mmHg 61%
    14:00 +10°C° 0 mm 3 m/S 740 mmHg 62%
    15:00 +10°C° 0 mm 3 m/S 740 mmHg 63%
    16:00 +10°C° 0 mm 3 m/S 739 mmHg 64%
    17:00 +9°C° 0 mm 3 m/S 740 mmHg 69%
    18:00 +7°C° 0 mm 3 m/S 740 mmHg 75%
    19:00 +5°C° 0 mm 3 m/S 740 mmHg 80%
    20:00 +5°C° 0 mm 3 m/S 740 mmHg 81%
    21:00 +5°C° 0 mm 3 m/S 740 mmHg 81%
    22:00 +4°C° 0 mm 3 m/S 740 mmHg 82%
    23:00 +4°C° 0 mm 3 m/S 740 mmHg 82%

    28 November, Dienstag

    Zeit Temperatur Niederschläge Wind Luftdruck Luftfeuchtigkeit
    00:00 +4°C° 0 mm 3 m/S 740 mmHg 81%
    01:00 +4°C° 0 mm 3 m/S 740 mmHg 81%
    02:00 +4°C° 0 mm 3 m/S 740 mmHg 80%
    03:00 +3°C° 0 mm 3 m/S 739 mmHg 79%
    04:00 +3°C° 0 mm 3 m/S 739 mmHg 78%
    05:00 +3°C° 0 mm 3 m/S 739 mmHg 77%
    06:00 +3°C° 0 mm 3 m/S 739 mmHg 76%
    07:00 +3°C° 0 mm 3 m/S 739 mmHg 75%
    08:00 +4°C° 0 mm 4 m/S 740 mmHg 70%
    09:00 +6°C° 0 mm 5 m/S 740 mmHg 64%
    10:00 +7°C° 0 mm 5 m/S 740 mmHg 58%
    11:00 +9°C° 0 mm 5 m/S 739 mmHg 55%
    12:00 +10°C° 0 mm 6 m/S 739 mmHg 52%
    13:00 +13°C° 0 mm 6 m/S 738 mmHg 48%
    14:00 +13°C° 0 mm 6 m/S 738 mmHg 51%
    15:00 +12°C° 0 mm 5 m/S 738 mmHg 53%
    16:00 +12°C° 0 mm 5 m/S 737 mmHg 55%
    17:00 +10°C° 0 mm 5 m/S 738 mmHg 60%
    18:00 +9°C° 0 mm 5 m/S 738 mmHg 64%
    19:00 +9°C° 0 mm 5 m/S 738 mmHg 68%
    20:00 +8°C° 0 mm 5 m/S 738 mmHg 70%
    21:00 +8°C° 0 mm 5 m/S 738 mmHg 71%
    22:00 +8°C° 0 mm 5 m/S 738 mmHg 72%
    23:00 +8°C° 0 mm 5 m/S 739 mmHg 71%

    29 November, Mittwoch

    Zeit Temperatur Niederschläge Wind Luftdruck Luftfeuchtigkeit
    00:00 +8°C° 0 mm 5 m/S 739 mmHg 70%
    01:00 +8°C° 0 mm 5 m/S 739 mmHg 68%
    02:00 +8°C° 0 mm 5 m/S 739 mmHg 70%
    03:00 +8°C° 0 mm 4 m/S 740 mmHg 73%
    04:00 +7°C° 0 mm 4 m/S 741 mmHg 75%
    05:00 +7°C° 0 mm 3 m/S 741 mmHg 76%
    06:00 +5°C° 0 mm 3 m/S 742 mmHg 77%
    07:00 +5°C° 0 mm 2 m/S 742 mmHg 78%
    08:00 +5°C° 0 mm 2 m/S 743 mmHg 71%
    09:00 +5°C° 0 mm 3 m/S 744 mmHg 64%
    10:00 +5°C° 0 mm 3 m/S 744 mmHg 56%
    11:00 +7°C° 0 mm 2 m/S 744 mmHg 51%
    12:00 +7°C° 0 mm 2 m/S 744 mmHg 46%
    13:00 +8°C° 0 mm 2 m/S 744 mmHg 41%
    14:00 +9°C° 0 mm 1 m/S 744 mmHg 43%
    15:00 +9°C° 0 mm 1 m/S 744 mmHg 44%
    16:00 +9°C° 0 mm 1 m/S 744 mmHg 45%
    17:00 +8°C° 0 mm 1 m/S 744 mmHg 49%
    18:00 +6°C° 0 mm 1 m/S 744 mmHg 53%
    19:00 +4°C° 0 mm 0 m/S 744 mmHg 57%
    20:00 +5°C° 0 mm 1 m/S 744 mmHg 59%
    21:00 +4°C° 0 mm 1 m/S 744 mmHg 61%
    22:00 +4°C° 0 mm 1 m/S 744 mmHg 63%
    23:00 +3°C° 0 mm 1 m/S 744 mmHg 64%

    30 November, Donnerstag

    Zeit Temperatur Niederschläge Wind Luftdruck Luftfeuchtigkeit
    00:00 +3°C° 0 mm 1 m/S 743 mmHg 66%
    01:00 +3°C° 0 mm 1 m/S 743 mmHg 68%
    02:00 +2°C° 0 mm 1 m/S 743 mmHg 69%
    03:00 +2°C° 0 mm 1 m/S 743 mmHg 70%
    04:00 +2°C° 0 mm 1 m/S 743 mmHg 71%
    05:00 +2°C° 0 mm 1 m/S 743 mmHg 73%
    06:00 +2°C° 0 mm 1 m/S 743 mmHg 75%
    07:00 +2°C° 0 mm 1 m/S 742 mmHg 76%
    08:00 +4°C° 0 mm 1 m/S 742 mmHg 75%
    09:00 +4°C° 0 mm 2 m/S 742 mmHg 73%
    10:00 +6°C° 0 mm 2 m/S 742 mmHg 71%
    11:00 +7°C° 0 mm 2 m/S 742 mmHg 72%
    12:00 +8°C° 0 mm 2 m/S 741 mmHg 72%
    13:00 +9°C° 0 mm 2 m/S 740 mmHg 73%
    14:00 +9°C° 0 mm 2 m/S 740 mmHg 77%
    15:00 +9°C° 0 mm 2 m/S 740 mmHg 80%
    16:00 +8°C° 0 mm 2 m/S 739 mmHg 84%
    17:00 +8°C° 0 mm 2 m/S 739 mmHg 85%
    18:00 +8°C° 0 mm 2 m/S 739 mmHg 87%
    19:00 +8°C° 0 mm 2 m/S 739 mmHg 88%
    20:00 +8°C° 0,1 mm 2 m/S 739 mmHg 89%
    21:00 +8°C° 0,1 mm 2 m/S 739 mmHg 90%
    22:00 +8°C° 0,1 mm 2 m/S 739 mmHg 92%
    23:00 +8°C° 0,5 mm 2 m/S 739 mmHg 93%
    Mehr zeigen